Regional Weather Roundup
Issued by NWS

Home | Current Version | Previous Version | Graphics & Text | Print | Product List | Glossary On
Versions: 1 2 3 4 5 6 7 8 9 10 11 12 13 14 15 16 17 18 19 20 21 22 23 24 25 26 27 28 29 30 31 32 33 34 35 36 37 38 39 40 41 42 43 44 45 46 47 48 49 50
476
ASUS43 KLOT 270503
RWRIL

ILLINOIS REGIONAL WEATHER ROUNDUP
NATIONAL WEATHER SERVICE CHICAGO/ROMEOVILLE IL
1200 AM CDT MON MAR 27 2017

NOTE: "FAIR" INDICATES FEW OR NO CLOUDS BELOW 12,000 FEET WITH NO
SIGNIFICANT WEATHER AND/OR OBSTRUCTIONS TO VISIBILITY.

* THESE STATIONS ARE NOT UNDER NWS QUALITY CONTROL. THEY ALSO MAY NOT
  REPORT WEATHER SUCH AS PRECIPITATION OR FOG.

ILZ001-002-007-009-015-016-024-270600-
NORTHWEST ILLINOIS

CITY           SKY/WX    TMP DP  RH WIND       PRES   REMARKS
MOLINE         CLOUDY    49  45  86 W6        29.92F
STERLING*      CLOUDY    49  48  97 W6        29.91S
SAVANNA*       CLOUDY    47  46  95 NW5       29.91S
$$

ILZ003-004-008-010-011-017-018-270600-
NORTH CENTRAL ILLINOIS

CITY           SKY/WX    TMP DP  RH WIND       PRES   REMARKS
ROCKFORD       CLOUDY    49  47  93 NW8       29.91S FOG
FREEPORT*      CLOUDY    45  45  99 NW3       29.92S
ROCHELLE*      CLOUDY    49  49  99 W8        29.90S FOG
DE KALB*       CLOUDY    51  50  99 W10       29.89S FOG
PERU*          CLOUDY    48  47  95 W10       29.92S FOG
$$

ILZ005-006-012>014-019>023-270600-
NORTHEAST ILLINOIS

CITY           SKY/WX    TMP DP  RH WIND       PRES   REMARKS
CHICAGO-OHARE  CLOUDY    52  49  89 W9        29.87F
CHICAGO-MIDWAY CLOUDY    52  50  93 W10       29.88F
AURORA         FOG       51  50  96 SW10      29.89S VSB 3/4
LANSING*       CLOUDY    51  50  97 W10       29.90S
JOLIET*        FOG       51  51  99 W6        29.90F VSB 1
WAUKEGAN       CLOUDY    43  43 100 CALM      29.87S FOG
DUPAGE AIRPORT FOG       50  50 100 SW8       29.87F VSB 1/4
WHEELING       CLOUDY    52  51  97 W7        29.88F
MORRIS*        CLOUDY    50  48  95 W9        29.90S FOG
$$

LMZ740>746-270600-
SOUTHERN LAKE MICHIGAN

STATION/POSITION SKY/WX   TEMP    WIND        PRES    VSBY  WAVE
                          AIR SEA DIR/SP/G                  HT/PER
                          (F)     (DEG/KT/KT) (MB)    (MI)  (FT/S)
HARRISON CRIB              53     260/ 11/ 12   N/A
BURNHAM HARBOR             51     260/  7/ 12   N/A
CALUMET HARBOR             52     220/  5/  9 1011.6F
BURNS HARBOR               52     220/  8/ 10 1012.5F
MICHIGAN CITY              49     240/ 15/ 16   N/A
$$

ILZ025>027-034>036-040-047-049-050-058-095>099-270600-
WEST-CENTRAL ILLINOIS

CITY           SKY/WX    TMP DP  RH WIND       PRES   REMARKS
QUINCY         CLOUDY    48  45  89 N5        29.93S
GALESBURG*     CLOUDY    47  46  95 CALM      29.93S
MACOMB*        CLOUDY    47  47  99 W6        29.95F FOG
JACKSONVILLE*  CLOUDY    46  45  96 CALM      29.95R
PITTSFIELD*    MOCLDY    46  46  98 CALM      29.96R
$$

ILZ028>032-037-038-041>044-048-051>054-059>061-270600-
CENTRAL ILLINOIS

CITY           SKY/WX    TMP DP  RH WIND       PRES   REMARKS
PONTIAC        CLOUDY    50  50  98 SW9       29.94R
BLOOMINGTON    CLOUDY    49  48  97 W10       29.94F FOG
DECATUR        CLOUDY    51  46  83 W3        29.95S
PEORIA         CLOUDY    49  48  97 W6        29.94S
SPRINGFIELD    PTCLDY    47  45  93 S3        29.94F
TAYLORVILLE    NOT AVBL
$$

ILZ033-039-045-046-055>057-062-063-270600-
EAST-CENTRAL ILLINOIS

CITY           SKY/WX    TMP DP  RH WIND       PRES   REMARKS
CHAMPAIGN      CLOUDY    51  46  83 W8        29.94F
RANTOUL*       CLOUDY    52  51  95 W7        29.95R
MATTOON        CLOUDY    52  49  89 SW3       29.95F
$$

ILZ079-100>102-270600-
SOUTHWEST ILLINOIS

CITY           SKY/WX    TMP DP  RH WIND       PRES   REMARKS
BELLEVILLE     PTCLDY    47  47 100 CALM      29.93R
CAHOKIA*       CLOUDY    50  46  86 CALM      29.93R
SPARTA*        CLOUDY    55  48  77 S5        29.95R
$$

ILZ064>066-069>071-074>076-080>082-084>086-088>090-092>094-270600-
SOUTH-CENTRAL ILLINOIS

CITY           SKY/WX    TMP DP  RH WIND       PRES   REMARKS
CARBONDALE     MOCLDY    49  47  93 SE5       29.94S
CAIRO*         PTCLDY    52  51  96 CALM      29.95R
EFFINGHAM*     CLOUDY    53  51  92 CALM      29.97F
MARION         CLOUDY    52  46  82 CALM      29.95F
MT. VERNON     PTCLDY    47  46  97 CALM      29.94F
CENTRALIA*     CLOUDY    52  49  89 SE3       29.93F
SALEM*         CLOUDY    50  48  94 E3        29.94F FOG
$$

ILZ067-068-072-073-078-083-087-091-270600-
SOUTHEAST ILLINOIS

CITY           SKY/WX    TMP DP  RH WIND       PRES   REMARKS
LAWRENCEVILLE  CLOUDY    49  48  97 CALM      29.97F
FLORA*         PTCLDY    48  47  95 CALM      29.96F
FAIRFIELD*     CLEAR     50  48  93 CALM      29.95S
HARRISBURG*    PTCLDY    49  47  94 SE3       29.97R
ROBINSON*      CLEAR     45  45  98 CALM      29.97F
CARMI*         CLEAR     45  44  97 CALM      29.96F
$$

ABBREVIATIONS USED IN REMARKS
   TC - TEMPERATURE IN CELSIUS
  WCI - WIND CHILL INDEX
   HX - HEAT INDEX
  VSB - VISIBILITY
$$





USA.gov is the U.S. government's official web portal to all federal, state and local government web resources and services.